[[{"header":{"parameterUnit":"m.s-1","parameterCategory":1,"la1":30.2991,"la2":30.254,"lo1":-89.0895,"lo2":-89.0444,"dy":0.0017,"dx":0.0017,"nx":28,"ny":28,"refTime":"2024-09-30T21:00:00:Z","depth":0,"parameterNumber":2,"parameterNumberName":"U-component_of_WINDS"},"data":[0,0,0,0,0,0,0,0,0,0,0,0,0,0,0,0,0,0,0,0,0,0,0,0,0,0,0,0,0,0,0,0,0,0,0,0,0,0,0,0,0,0,0,0,0,0,0,0,0,0,0,0,0,0,0,0,0,0,1.0673,1.0673,0,1.0733,1.0734,1.0735,1.0741,1.0741,1.074,1.074,1.0807,1.081,1.0812,0,0,0,0,0,0,0,0,0,0,0,0,0,1.0566,1.0568,1.0673,1.0673,1.0674,1.0733,1.0734,1.0735,1.0742,1.0741,1.074,1.0739,1.0807,1.0809,1.0812,0,0,0,0,0,0,0,0,0,0,0,0,0,1.0618,1.0569,1.0672,1.0684,1.0686,1.0733,1.0734,1.0735,1.0742,1.0741,1.074,1.0739,1.0806,1.0809,1.0813,1.0854,0,0,1.0824,1.0825,0,0,0,0,0,0,0,0,1.0615,1.0622,1.0682,1.0684,1.0685,1.0729,1.0722,1.0775,1.0742,1.0721,1.074,1.0738,1.0782,1.0788,1.0802,1.0857,1.086,1.0824,1.0826,1.0828,1.0829,0,0,0,0,0,0,0,1.0612,1.062,1.0697,1.0683,1.0685,1.0688,1.0694,1.0732,1.0756,1.0722,1.0723,1.073,1.0783,1.0798,1.0803,1.0861,1.0824,1.0827,1.0829,1.0831,1.0953,1.0954,0,0,0,0,0,0,1.0605,1.0617,1.0695,1.0699,1.0647,1.0691,1.0698,1.0716,1.0756,1.0761,1.0731,1.073,1.0792,1.0799,1.0806,1.0856,1.0828,1.0831,1.0833,1.0952,1.0953,1.0954,0,0,0,0,0,0,1.0603,1.0612,1.0692,1.0658,1.0668,1.0693,1.0714,1.0718,1.0732,1.0762,1.0767,1.0741,1.0792,1.0801,1.0841,1.0858,1.0833,1.0836,1.0951,1.0952,1.0954,1.0957,0,0,0,0,0,0,1.06,1.0611,1.0626,1.0658,1.067,1.0726,1.0715,1.072,1.0738,1.0738,1.0773,1.0778,1.0792,1.0836,1.0845,1.0863,1.0839,1.0949,1.0951,1.0953,1.0955,1.0958,1.0961,0,0,0,0,0,1.0596,1.0626,1.0627,1.0636,1.0689,1.0727,1.0734,1.0747,1.0739,1.0755,1.0774,1.0777,1.0855,1.084,1.085,1.0869,1.0948,1.0951,1.0953,1.0954,1.0958,1.0961,0,0,0,0,0,0,1.0598,1.0631,1.0632,1.0673,1.0697,1.0728,1.0748,1.0751,1.0779,1.0778,1.0796,1.0804,1.0844,1.0861,1.0844,1.0911,1.0901,1.0906,1.0898,1.0902,1.0905,1.09,1.0842,0,0,0,0,0,1.0603,1.0629,1.0657,1.069,1.0702,1.0723,1.074,1.0748,1.0774,1.0785,1.0807,1.0834,1.0864,1.0884,1.0914,1.0958,1.0966,1.0976,1.0979,1.0981,1.0985,1.1009,1.1014,1.0962,1.0962,1.0962,0,0,1.0614,1.0635,1.0651,1.0691,1.0711,1.0739,1.0732,1.0762,1.0783,1.0791,1.0829,1.0846,1.0878,1.092,1.0939,1.0935,1.1001,1.0984,1.0986,1.0988,1.1012,1.1017,1.1021,1.0964,1.0964,1.0963,0,0,1.0648,1.0666,1.0695,1.0715,1.0743,1.0757,1.0764,1.0794,1.0805,1.0844,1.085,1.0876,1.0929,1.095,1.0968,1.1008,1.1012,1.1018,1.1033,1.1056,1.106,1.1063,1.1077,1.1082,1.1022,1.1022,1.1022,0,1.0658,1.0699,1.0711,1.074,1.0758,1.0764,1.0794,1.0813,1.0851,1.0863,1.0857,1.0922,1.0944,1.099,1.1,1.1014,1.1023,1.1014,1.1058,1.1062,1.1065,1.1079,1.1084,1.1022,1.1022,1.1022,1.1022,0,1.071,1.0738,1.0759,1.0793,1.0813,1.0843,1.086,1.088,1.0886,1.09,1.094,1.0966,1.1,1.1012,1.102,1.106,1.1056,1.1054,1.1044,1.107,1.1083,1.1089,1.1023,1.1023,1.1022,1.1022,0,0,1.0747,1.0786,1.0793,1.0808,1.084,1.0863,1.0893,1.0925,1.0941,1.0967,1.0993,1.1036,1.1034,1.1054,1.1064,1.1084,1.1114,1.108,1.1081,1.1085,1.116,1.1161,1.1167,1.1117,1.1118,1.1119,1.1157,0,1.0784,1.0836,1.0848,1.0893,1.092,1.0925,1.0951,1.0974,1.0989,1.1014,1.1031,1.106,1.1055,1.1067,1.1088,1.1106,1.1129,1.1104,1.1142,1.1143,1.1133,1.1174,1.1175,1.121,1.1162,1.1163,1.1164,0,1.0835,1.0859,1.0907,1.0934,1.0945,1.0969,1.0998,1.1022,1.1049,1.1058,1.1079,1.1086,1.1119,1.1107,1.1153,1.1135,1.1151,1.1163,1.1165,1.1169,1.1155,1.1178,1.1222,1.1227,1.1172,1.1171,1.1171,0,1.0856,1.0902,1.0936,1.0948,1.0981,1.0997,1.1012,1.1037,1.1055,1.1082,1.1094,1.1124,1.1141,1.1165,1.1181,1.1171,1.1225,1.1215,1.1234,1.1233,1.1245,1.1244,1.1291,1.1256,1.1256,1.1256,1.1256,0,1.0896,1.0925,1.0945,1.0966,1.0999,1.1012,1.1044,1.1059,1.1081,1.1106,1.1114,1.1137,1.1156,1.1183,1.1195,1.1231,1.1239,1.1247,1.125,1.1246,1.1245,1.1257,1.1255,1.1257,1.1257,1.1257,1.1256,0,1.0926,1.0941,1.0978,1.1005,1.1013,1.1036,1.1059,1.1081,1.1094,1.1125,1.1134,1.1156,1.1187,1.1205,1.1245,1.1253,1.1293,1.1295,1.1283,1.1284,1.1302,1.13,1.1358,1.1367,1.1326,1.1327,1.1327,0,1.095,1.0972,1.1001,1.1017,1.1032,1.1058,1.1076,1.109,1.1108,1.1139,1.1156,1.1187,1.1213,1.1263,1.1283,1.1314,1.1316,1.1335,1.1321,1.1316,1.1316,1.1314,1.1317,1.1337,1.1338,1.1338,1.1338,0,1.0992,1.0998,1.1022,1.1049,1.1069,1.1092,1.1114,1.1127,1.1145,1.1166,1.1197,1.1216,1.1256,1.1287,1.1318,1.1335,1.134,1.1342,1.1348,1.1344,1.1336,1.134,1.1289,1.1341,1.134,1.134,1.134,1.134,1.1019,1.1039,1.1061,1.1089,1.1106,1.1127,1.1147,1.1163,1.1188,1.122,1.1227,1.126,1.1285,1.1328,1.1345,1.1371,1.1368,1.1377,1.1379,1.1381,1.1381,1.1332,1.1377,1.1377,1.1377,1.1377,1.1377,0,1.1061,1.1075,1.11,1.113,1.1151,1.1152,1.1176,1.1194,1.1222,1.1245,1.1269,1.1304,1.1334,1.1356,1.1387,1.1403,1.1406,1.1411,1.141,1.1413,1.1383,1.1374,1.1408,1.1408,1.1408,1.1408,1.1408,1.1408,1.1084,1.1117,1.1125,1.1167,1.1182,1.1212,1.1226,1.1245,1.1263,1.1301,1.1325,1.1339,1.1361,1.1393,1.1421,1.1427,1.1438,1.1442,1.1448,1.1419,1.1416,1.1413,1.1405,1.1444,1.1444,1.1476,1.1477,1.1477]},{"header":{"parameterUnit":"m.s-1","parameterCategory":1,"la1":30.2991,"la2":30.254,"lo1":-89.0895,"lo2":-89.0444,"dy":0.0017,"dx":0.0017,"nx":28,"ny":28,"refTime":"2024-09-30T21:00:00:Z","depth":0,"parameterNumber":3,"parameterNumberName":"V-component_of_WINDS"},"data":[0,0,0,0,0,0,0,0,0,0,0,0,0,0,0,0,0,0,0,0,0,0,0,0,0,0,0,0,0,0,0,0,0,0,0,0,0,0,0,0,0,0,0,0,0,0,0,0,0,0,0,0,0,0,0,0,0,0,2.7426,2.7426,0,2.744,2.744,2.744,2.747,2.7471,2.7471,2.7472,2.7481,2.7481,2.748,0,0,0,0,0,0,0,0,0,0,0,0,0,2.7421,2.7421,2.7426,2.7426,2.7427,2.744,2.744,2.744,2.747,2.7471,2.7471,2.7472,2.7481,2.7481,2.748,0,0,0,0,0,0,0,0,0,0,0,0,0,2.7427,2.7421,2.7426,2.7443,2.7445,2.7439,2.744,2.744,2.747,2.7471,2.7472,2.7472,2.7481,2.7481,2.748,2.7458,0,0,2.7479,2.7478,0,0,0,0,0,0,0,0,2.7427,2.7427,2.7441,2.7442,2.7444,2.7454,2.7441,2.7446,2.7469,2.746,2.7472,2.7473,2.7471,2.7471,2.7472,2.7459,2.7459,2.7479,2.7478,2.7478,2.7478,0,0,0,0,0,0,0,2.7426,2.7427,2.7431,2.7441,2.7443,2.7448,2.745,2.7442,2.746,2.7461,2.7463,2.7465,2.7472,2.7472,2.7472,2.7459,2.7479,2.7478,2.7478,2.7478,2.7424,2.7423,0,0,0,0,0,0,2.7424,2.7426,2.7431,2.7432,2.7438,2.7447,2.745,2.745,2.746,2.7463,2.7464,2.7466,2.7473,2.7473,2.7473,2.7444,2.7478,2.7478,2.7477,2.7425,2.7423,2.7422,0,0,0,0,0,0,2.7424,2.7424,2.743,2.743,2.7431,2.7447,2.7446,2.745,2.745,2.7462,2.7465,2.7461,2.7473,2.7473,2.7461,2.7445,2.7477,2.7477,2.7426,2.7424,2.7423,2.7389,0,0,0,0,0,0,2.7424,2.7424,2.7418,2.7429,2.7431,2.742,2.7446,2.7449,2.7449,2.7452,2.746,2.7463,2.7474,2.7461,2.746,2.7445,2.7477,2.7427,2.7425,2.7423,2.7392,2.7387,2.7382,0,0,0,0,0,2.7423,2.7408,2.7417,2.7417,2.7423,2.742,2.742,2.7435,2.7448,2.744,2.7448,2.7462,2.7447,2.746,2.7459,2.7443,2.7429,2.7426,2.7423,2.7394,2.7388,2.7383,0,0,0,0,0,0,2.7393,2.741,2.742,2.7408,2.7412,2.7425,2.7416,2.7428,2.7428,2.743,2.7447,2.7449,2.7433,2.7437,2.7451,2.742,2.744,2.7437,2.7418,2.7412,2.7407,2.7406,2.7476,0,0,0,0,0,2.7385,2.7382,2.7396,2.7384,2.7386,2.74,2.7399,2.741,2.7414,2.7416,2.7422,2.7424,2.742,2.7416,2.7413,2.7393,2.7393,2.7381,2.7376,2.7372,2.7369,2.7355,2.7349,2.7414,2.7414,2.7414,0,0,2.7368,2.7377,2.7374,2.7378,2.7383,2.7377,2.7401,2.7395,2.739,2.7414,2.7403,2.7407,2.741,2.7393,2.7385,2.7396,2.7351,2.7369,2.7366,2.7365,2.7351,2.7345,2.734,2.7412,2.7412,2.7413,0,0,2.7334,2.7342,2.7331,2.7335,2.7341,2.735,2.7347,2.7357,2.7361,2.735,2.7367,2.736,2.7353,2.7353,2.7353,2.7315,2.7327,2.7314,2.7288,2.7274,2.7269,2.7264,2.7247,2.7242,2.7311,2.7311,2.731,0,2.7312,2.7306,2.7324,2.7316,2.7315,2.7337,2.7324,2.7327,2.7331,2.7329,2.7341,2.733,2.7334,2.7315,2.7305,2.7305,2.7299,2.7312,2.7268,2.7264,2.726,2.7244,2.7238,2.7309,2.7309,2.7309,2.7309,0,2.7277,2.7272,2.7263,2.7266,2.7265,2.7255,2.7268,2.7264,2.7274,2.7281,2.7267,2.7272,2.7268,2.7265,2.7275,2.7246,2.7252,2.7266,2.7286,2.7251,2.7237,2.7231,2.7306,2.7307,2.7307,2.7308,0,0,2.7226,2.7238,2.7233,2.7234,2.7241,2.7237,2.7225,2.7223,2.7217,2.7219,2.7208,2.72,2.7212,2.7211,2.722,2.7208,2.7174,2.7223,2.7223,2.7211,2.7138,2.7126,2.7119,2.7182,2.7181,2.718,2.7137,0,2.7192,2.7176,2.7189,2.7169,2.7163,2.7182,2.7171,2.7173,2.7179,2.7172,2.7177,2.717,2.7188,2.7187,2.7176,2.718,2.7159,2.7184,2.7169,2.7168,2.7166,2.7112,2.71,2.7058,2.7131,2.713,2.713,0,2.7151,2.715,2.7129,2.7135,2.7133,2.7124,2.712,2.7115,2.7115,2.712,2.7117,2.7129,2.7115,2.7136,2.7115,2.7132,2.7126,2.7127,2.7125,2.7123,2.7146,2.7105,2.7046,2.7039,2.7122,2.7122,2.7123,0,2.7112,2.7106,2.7092,2.7092,2.7099,2.7091,2.7093,2.7095,2.7091,2.7087,2.7084,2.7079,2.7075,2.7069,2.7078,2.7093,2.7054,2.7077,2.7055,2.7054,2.7045,2.7045,2.6981,2.7045,2.7045,2.7045,2.7045,0,2.7071,2.7057,2.7074,2.7065,2.7048,2.7063,2.7045,2.7049,2.705,2.7039,2.7056,2.7045,2.7058,2.7048,2.7055,2.7034,2.7033,2.7034,2.7035,2.7031,2.7031,2.7027,2.7029,2.7043,2.7044,2.7044,2.7044,0,2.7025,2.7036,2.7021,2.7028,2.7029,2.7016,2.7021,2.7011,2.7017,2.7004,2.7001,2.701,2.6998,2.7006,2.6995,2.6999,2.6971,2.6978,2.6971,2.6972,2.6949,2.695,2.6878,2.6868,2.6941,2.694,2.694,0,2.6998,2.6987,2.6992,2.6987,2.6988,2.698,2.6976,2.6989,2.6983,2.6981,2.6971,2.6961,2.6954,2.6934,2.6937,2.6928,2.6933,2.6908,2.6931,2.6926,2.6929,2.6928,2.6925,2.6903,2.6902,2.6901,2.6901,0,2.6947,2.6952,2.6947,2.6942,2.6937,2.6933,2.6931,2.6925,2.6938,2.693,2.6919,2.6913,2.6901,2.6889,2.6881,2.688,2.6891,2.6894,2.6887,2.6882,2.6877,2.6876,2.6956,2.6895,2.6896,2.6896,2.6896,2.6897,2.6907,2.6897,2.6899,2.6891,2.689,2.6887,2.6877,2.6881,2.6873,2.6864,2.6872,2.6857,2.6854,2.6844,2.6841,2.6828,2.6838,2.683,2.6827,2.6824,2.6819,2.6881,2.6827,2.6827,2.6827,2.6827,2.6827,0,2.6855,2.6857,2.6849,2.6845,2.6838,2.685,2.6847,2.6839,2.6827,2.6824,2.6816,2.6801,2.6789,2.6791,2.6779,2.6768,2.6772,2.6764,2.6764,2.6763,2.6813,2.6818,2.676,2.676,2.676,2.676,2.676,2.676,2.6827,2.681,2.6814,2.6795,2.6796,2.6783,2.678,2.6775,2.6773,2.6756,2.6746,2.6748,2.6745,2.6733,2.6721,2.6722,2.6715,2.6704,2.6706,2.6753,2.676,2.6766,2.6771,2.6704,2.6703,2.6656,2.6656,2.6656]}]]